Find Hawk 11A

NORAD ID: 62382 Int'l Des: 2024-247 Owner: HE360 Country: US operational
LEOCIRCULAR

Live-Position

3D-Globus wird geladen...

Über Hawk 11A

Beschreibung wird geladen...

Nächste Überflüge

Passes for default location (London). Set your location on the main map for personalized predictions.

Höhenverlauf

Loading altitude history...

Zweizeiliger Elementsatz

1 62382U 24247F 26106.72741028 .00004512 00000-0 16508-3 0 9991
2 62382 44.9927 265.1776 0005211 223.7553 136.2918 15.29505889 73594
Epoch: 16. Apr. 2026 • Age: 22 hours

Aktueller Status

Höhe 480.7 km
Geschwindigkeit 7.63 km/s
Subsatellitenpunkt 24.31°N, 152.3°W
Startdatum 21. Dez. 2024
Alter 1.3 years
Typ other

Technische Details

Klassifizierung Payload
Masse 31.00 kg
Trockenmasse 30.00 kg
Gesamtmasse 31.00 kg
Länge 0.45 m
Durchmesser 0.30 m
Spannweite 1.00 m
Form Box + 2 pan
Hersteller UTIAS
Bus-Typ Hawk2G
Phasenstatus In Orbit
Besitzer/Staat HE360/US

Most Searched